SCP
0 0 -0 -0 -0 -0 0 0 0 0 0 0 0 0 0 0 0 0 0 0 0 0 0 0 0 0 0 0 0 0 -0 -0
-0 -0 -0 -0 -0 -0 0 0 0 0 0 0 0 0 0 0 0 0 0 0 0 0 0 0 0 0 0 0 0 -0 -0 0
-0 -0 -0 -0 0 0 0 0 0 0 0 0 0 0 0 0 0 0 0 0 0 0 0 0 0 0 0 0 0 0 0 0
-0 0 0 0 0 0 0 0 0 0 0 0 0 0 0 0 0 0 0 0 0 0 0 0 0 0 0 0 0 0 0 0
0 0 0 0 0 0 0 0 0 0 0 0 0 0 0 0 0 0 0 0 0 0 0 0 0 0 0 0 0 0 0 0
0 0 0 0 0 0 0 0 0 0 0 0 0 0 0 0 0 0 -0 0 -0 -0 -0 -0 -0 -0 0 -0 0 0 0 0
0 0 0 0 0 0 0 0 0 0 0 0 -0 0 -0 0 0 0 0 0 0 0 0 -0 -0 0 0 0 -0 -0 -0 -0
0 0 0 0 0 0 0 -0 0 0 0 0 -0 -0 0 -0 -0 0 -0 0 0 -0 -0 0 -0 -0 -0 -0 -0 -0 -0 0
0 0 0 0 0 0 0 0 0 0 0 0 0 0 0 0 0 0 0 0 0 -0 -0 -0 -0 -0 -0 -0 -0 0 -0 -0
0 -0 -0 0 0 0 0 0 0 0 0 0 0 0 0 0 0 0 0 0 0 0 0 0 0 0 0 0 0 -0 -0 0
0 0 0 0 0 0 0 0 0 0 0 0 0 0 0 0 0 0 0 0 0 0 0 0 0 0 0 0 -0 -0 0 -0
0 0 0 0 0 0 0 0 0 0 0 0 0 0 0 0 0 0 0 0 0 0 -0 -0 -0 0 0 0 0 -0 -0 -0
0 0 0 0 0 0 0 0 0 0 0 0 0 0 0 0 0 0 0 -0 -0 -0 -0 0 0 0 0 0 0 0 0 0
0 0 0 0 0 0 0 0 0 0 0 0 0 -0 -0 0 0 -0 -0 0 0 0 0 0 0 0 0 0 0 0 -0 0
0 0 0 0 0 0 0 0 0 0 -0 0 0 0 0 0 0 0 0 0 0 0 0 0 0 0 0 0 -0 -0 -0 0
0 0 -0 -0 0 0 0 0 0 0 0 0 0 0 0 0 0 0 0 0 0 0 0 0 -0 0 0 0 0 0 0 0
0 -0 -0 -0 -0 0 0 0 0 0 0 0 0 0 0 0 0 0 0 0 0 0 0 0 0 0 0 0 0 0 0 0
0 -0 -0 -0 0 0 0 0 0 0 0 0 0 0 0 0 0 0 0 0 -0 0 0 0 0 0 0 0 0 0 0 0
0 -0 -0 -0 0 0 0 0 0 0 0 0 0 0 0 0 0 0 -0 0 0 0 -0 0 0 0 0 0 0 0 0 0
-0 -0 -0 -0 0 0 0 0 0 0 -0 -0 -0 -0 -0 -0 0 0 0 -0 -0 0 0 0 0 0 0 0 0 0 0 0
Wind_Speed_500mb
71 89 91 85 84 82 81 77 76 72 67 67 67 64 64 64 54 52 56 52 52 52 48 47 50 50 46 45 46 57 62 62
61 61 59 61 71 69 70 72 71 69 73 71 64 53 47 48 53 53 60 48 39 44 48 47 42 44 47 51 55 62 62 58
62 61 66 69 72 75 72 67 68 69 64 58 57 57 54 48 50 44 41 42 52 45 41 43 39 46 51 57 63 63 46 37
68 67 78 80 75 70 81 76 68 59 61 57 53 54 44 35 36 34 34 32 30 35 34 43 41 48 60 63 48 39 33 35
60 71 73 77 74 68 67 64 59 57 52 47 39 36 33 31 28 32 20 22 31 39 46 53 52 48 42 37 32 32 30 19
69 68 72 67 64 60 57 55 52 47 44 35 28 29 24 23 29 36 32 28 32 36 41 41 35 30 32 31 26 22 15 26
61 61 57 56 54 53 54 52 51 44 34 29 22 18 18 19 20 19 18 20 23 23 23 20 21 23 21 21 14 21 31 25
55 52 49 46 47 49 48 47 43 31 20 21 11 13 13 14 14 15 21 18 19 22 20 14 15 14 10 2 26 33 40 36
45 45 45 42 43 45 44 43 41 33 27 21 15 13 12 12 11 12 14 13 12 12 16 25 28 29 32 36 41 44 33 35
43 44 43 41 40 38 40 39 37 35 33 28 28 31 27 23 15 15 18 17 23 23 33 43 43 39 31 31 29 46 56 52
39 40 41 39 38 37 37 36 32 30 31 28 27 25 23 22 25 32 33 34 44 50 47 46 51 71 67 60 54 49 39 29
36 37 40 40 38 34 31 29 26 25 27 30 31 32 34 36 35 34 39 40 44 41 70 80 64 46 40 36 32 28 23 20
31 34 37 37 36 36 33 30 31 37 39 39 39 42 46 49 49 49 59 84 75 65 53 43 35 34 35 35 32 30 34 36
27 30 32 34 39 44 48 48 47 49 55 56 59 67 73 77 77 71 59 54 53 51 49 48 44 39 33 33 40 40 35 31
25 30 36 52 61 68 72 72 69 67 65 61 60 64 67 68 69 70 67 61 57 53 52 49 47 50 41 36 35 34 32 30
25 37 49 63 60 58 56 54 53 54 54 57 66 69 68 68 67 65 62 60 57 53 48 44 41 37 35 33 27 24 30 31
30 47 49 48 48 45 42 46 54 62 66 65 64 64 60 56 55 56 53 50 51 50 41 38 33 28 27 26 23 28 27 27
33 51 47 46 42 38 35 33 32 41 39 39 37 36 36 41 41 41 42 44 41 38 36 34 30 24 26 31 36 36 34 30
42 52 49 41 37 34 33 35 27 20 23 28 25 29 37 38 40 39 40 35 32 31 29 23 18 22 24 26 32 35 36 36
48 52 44 36 31 31 31 28 32 34 33 35 35 46 47 43 39 34 29 28 27 27 28 27 27 32 31 30 33 35 35 36
Wind_Direction_500mb
340 335 333 330 326 324 321 320 317 316 313 308 304 303 297 283 276 278 276 276 276 276 277 281 284 283 282 284 291 300 304 306
335 337 337 332 332 329 325 320 318 313 309 309 310 307 308 300 298 279 264 271 278 272 269 270 274 277 279 286 296 304 306 305
342 338 336 333 329 325 323 319 315 316 314 309 306 303 298 304 294 295 279 273 269 276 273 273 274 278 290 295 296 303 304 296
338 334 330 329 328 325 320 320 320 319 313 307 299 295 306 305 306 308 283 273 273 277 276 277 292 298 294 296 298 292 285 284
331 328 331 328 326 326 326 324 324 322 318 315 308 309 307 298 304 283 324 300 276 295 297 299 295 295 293 290 287 289 284 259
333 333 331 335 335 334 332 330 328 327 327 321 312 320 310 312 296 311 311 307 304 303 300 298 294 289 289 291 290 286 197 170
333 335 340 343 345 343 341 341 336 329 328 331 323 317 323 326 323 315 313 312 309 303 305 320 306 300 304 297 275 194 172 155
343 346 352 354 358 355 355 351 355 353 347 339 11 10 0 341 345 347 324 310 289 307 324 356 7 12 23 161 160 157 136 119
353 0 4 4 4 7 8 15 17 25 32 35 27 14 15 355 360 5 10 354 31 55 72 81 79 85 96 106 111 111 111 119
5 12 15 13 15 19 18 24 35 47 55 59 50 35 50 58 65 54 61 73 94 83 95 95 94 87 85 91 95 85 93 99
14 18 20 17 20 25 30 33 40 46 50 55 49 46 59 62 72 85 85 87 96 99 97 88 99 93 92 96 101 99 100 98
18 21 25 26 27 34 39 42 44 49 47 56 66 70 77 79 82 81 85 91 94 105 97 95 98 98 94 89 85 85 82 75
24 27 31 35 40 45 46 49 61 73 74 74 78 82 83 84 82 85 93 97 95 95 95 90 82 78 76 77 72 72 91 95
32 39 44 51 62 67 67 67 74 80 82 84 89 92 93 94 93 95 91 85 82 81 79 75 72 73 72 75 89 92 90 88
50 61 81 88 85 84 82 78 76 77 78 79 82 84 85 86 87 88 91 90 87 84 87 87 88 92 93 96 99 96 91 86
76 97 97 97 92 88 83 79 75 74 79 89 93 92 90 89 89 89 89 87 85 86 88 86 90 93 95 95 93 94 87 82
94 116 115 104 96 86 75 73 82 88 91 92 92 91 90 90 92 96 96 91 91 92 94 96 97 96 94 90 85 77 77 79
105 125 119 110 100 90 81 80 93 96 83 83 82 85 89 89 91 96 99 102 98 95 95 94 98 97 80 68 62 63 64 67
118 129 122 115 110 98 83 91 99 112 102 99 94 94 98 95 94 94 99 98 94 92 85 79 77 80 78 63 56 58 63 65
132 135 136 131 118 94 86 99 98 100 96 96 99 100 104 110 105 99 90 83 82 83 83 76 75 77 77 74 70 68 67 68
Wind_Speed_850mb
71 89 91 85 84 82 81 77 76 72 67 67 67 64 64 64 54 52 56 52 52 52 48 47 50 50 46 45 46 57 62 62
61 61 59 61 71 69 70 72 71 69 73 71 64 53 47 48 53 53 60 48 39 44 48 47 42 44 47 51 55 62 62 58
62 61 66 69 72 75 72 67 68 69 64 58 57 57 54 48 50 44 41 42 52 45 41 43 39 46 51 57 63 63 46 37
68 67 78 80 75 70 81 76 68 59 61 57 53 54 44 35 36 34 34 32 30 35 34 43 41 48 60 63 48 39 33 35
60 71 73 77 74 68 67 64 59 57 52 47 39 36 33 31 28 32 20 22 31 39 46 53 52 48 42 37 32 32 30 19
69 68 72 67 64 60 57 55 52 47 44 35 28 29 24 23 29 36 32 28 32 36 41 41 35 30 32 31 26 22 15 26
61 61 57 56 54 53 54 52 51 44 34 29 22 18 18 19 20 19 18 20 23 23 23 20 21 23 21 21 14 21 31 25
55 52 49 46 47 49 48 47 43 31 20 21 11 13 13 14 14 15 21 18 19 22 20 14 15 14 10 2 26 33 40 36
45 45 45 42 43 45 44 43 41 33 27 21 15 13 12 12 11 12 14 13 12 12 16 25 28 29 32 36 41 44 33 35
43 44 43 41 40 38 40 39 37 35 33 28 28 31 27 23 15 15 18 17 23 23 33 43 43 39 31 31 29 46 56 52
39 40 41 39 38 37 37 36 32 30 31 28 27 25 23 22 25 32 33 34 44 50 47 46 51 71 67 60 54 49 39 29
36 37 40 40 38 34 31 29 26 25 27 30 31 32 34 36 35 34 39 40 44 41 70 80 64 46 40 36 32 28 23 20
31 34 37 37 36 36 33 30 31 37 39 39 39 42 46 49 49 49 59 84 75 65 53 43 35 34 35 35 32 30 34 36
27 30 32 34 39 44 48 48 47 49 55 56 59 67 73 77 77 71 59 54 53 51 49 48 44 39 33 33 40 40 35 31
25 30 36 52 61 68 72 72 69 67 65 61 60 64 67 68 69 70 67 61 57 53 52 49 47 50 41 36 35 34 32 30
25 37 49 63 60 58 56 54 53 54 54 57 66 69 68 68 67 65 62 60 57 53 48 44 41 37 35 33 27 24 30 31
30 47 49 48 48 45 42 46 54 62 66 65 64 64 60 56 55 56 53 50 51 50 41 38 33 28 27 26 23 28 27 27
33 51 47 46 42 38 35 33 32 41 39 39 37 36 36 41 41 41 42 44 41 38 36 34 30 24 26 31 36 36 34 30
42 52 49 41 37 34 33 35 27 20 23 28 25 29 37 38 40 39 40 35 32 31 29 23 18 22 24 26 32 35 36 36
48 52 44 36 31 31 31 28 32 34 33 35 35 46 47 43 39 34 29 28 27 27 28 27 27 32 31 30 33 35 35 36
Wind_Direction_850mb
340 335 333 330 326 324 321 320 317 316 313 308 304 303 297 283 276 278 276 276 276 276 277 281 284 283 282 284 291 300 304 306
335 337 337 332 332 329 325 320 318 313 309 309 310 307 308 300 298 279 264 271 278 272 269 270 274 277 279 286 296 304 306 305
342 338 336 333 329 325 323 319 315 316 314 309 306 303 298 304 294 295 279 273 269 276 273 273 274 278 290 295 296 303 304 296
338 334 330 329 328 325 320 320 320 319 313 307 299 295 306 305 306 308 283 273 273 277 276 277 292 298 294 296 298 292 285 284
331 328 331 328 326 326 326 324 324 322 318 315 308 309 307 298 304 283 324 300 276 295 297 299 295 295 293 290 287 289 284 259
333 333 331 335 335 334 332 330 328 327 327 321 312 320 310 312 296 311 311 307 304 303 300 298 294 289 289 291 290 286 197 170
333 335 340 343 345 343 341 341 336 329 328 331 323 317 323 326 323 315 313 312 309 303 305 320 306 300 304 297 275 194 172 155
343 346 352 354 358 355 355 351 355 353 347 339 11 10 0 341 345 347 324 310 289 307 324 356 7 12 23 161 160 157 136 119
353 0 4 4 4 7 8 15 17 25 32 35 27 14 15 355 360 5 10 354 31 55 72 81 79 85 96 106 111 111 111 119
5 12 15 13 15 19 18 24 35 47 55 59 50 35 50 58 65 54 61 73 94 83 95 95 94 87 85 91 95 85 93 99
14 18 20 17 20 25 30 33 40 46 50 55 49 46 59 62 72 85 85 87 96 99 97 88 99 93 92 96 101 99 100 98
18 21 25 26 27 34 39 42 44 49 47 56 66 70 77 79 82 81 85 91 94 105 97 95 98 98 94 89 85 85 82 75
24 27 31 35 40 45 46 49 61 73 74 74 78 82 83 84 82 85 93 97 95 95 95 90 82 78 76 77 72 72 91 95
32 39 44 51 62 67 67 67 74 80 82 84 89 92 93 94 93 95 91 85 82 81 79 75 72 73 72 75 89 92 90 88
50 61 81 88 85 84 82 78 76 77 78 79 82 84 85 86 87 88 91 90 87 84 87 87 88 92 93 96 99 96 91 86
76 97 97 97 92 88 83 79 75 74 79 89 93 92 90 89 89 89 89 87 85 86 88 86 90 93 95 95 93 94 87 82
94 116 115 104 96 86 75 73 82 88 91 92 92 91 90 90 92 96 96 91 91 92 94 96 97 96 94 90 85 77 77 79
105 125 119 110 100 90 81 80 93 96 83 83 82 85 89 89 91 96 99 102 98 95 95 94 98 97 80 68 62 63 64 67
118 129 122 115 110 98 83 91 99 112 102 99 94 94 98 95 94 94 99 98 94 92 85 79 77 80 78 63 56 58 63 65
132 135 136 131 118 94 86 99 98 100 96 96 99 100 104 110 105 99 90 83 82 83 83 76 75 77 77 74 70 68 67 68